GW6852 Weather Reports


time (UTC)temp
F
wind
direction
speed
knots
gust
knots
rain 1hr
in
rain 24hr
in
rain mn
in
humidity
%
barometer
mb
20260505101728 56 115 1.7 5.2 0.00 0.00 0.00 80 1013.0
20260505101223 56 4 2.6 3.5 0.00 0.00 0.00 79 1012.9
20260505100720 56 341 0.0 2.6 0.00 0.00 0.00 78 1013.0
20260505100217 56 64 1.7 2.6 0.00 0.00 0.00 78 1012.8
20260505095712 56 88 0.9 2.6 0.00 0.00 0.00 77 1012.9
20260505095211 57 38 0.0 1.7 0.00 0.00 0.00 76 1012.9
20260505094706 58 345 0.0 2.6 0.00 0.00 0.00 74 1012.8
20260505094203 58 322 0.0 1.7 0.00 0.00 0.00 72 1012.9
20260505093659 59 129 0.0 7.8 0.00 0.00 0.00 73 1012.7
20260505093157 59 89 0.9 7.0 0.00 0.00 0.00 73 1012.5
20260505092653 58 98 3.5 9.6 0.00 0.00 0.00 73 1012.6
20260505092152 59 337 0.0 5.2 0.00 0.00 0.00 72 1012.7
20260505091649 58 151 0.9 7.0 0.00 0.00 0.00 72 1012.5
20260505091147 58 66 0.9 7.8 0.00 0.00 0.00 73 1012.4
20260505090644 57 39 1.7 2.6 0.00 0.00 0.00 73 1012.6
20260505090142 57 141 0.0 2.6 0.00 0.00 0.00 73 1012.5
20260505085639 57 104 2.6 3.5 0.00 0.00 0.00 73 1012.6
20260505085137 58 225 0.9 2.6 0.00 0.00 0.00 71 1012.5
20260505084635 58 193 0.0 2.6 0.00 0.00 0.00 70 1012.5
20260505084133 59 149 1.7 2.6 0.00 0.00 0.00 66 1012.5
20260505083630 60 24 2.6 3.5 0.00 0.00 0.00 61 1012.4
20260505083126 60 99 1.7 2.6 0.00 0.00 0.00 61 1012.4
20260505082622 60 301 1.7 3.5 0.00 0.00 0.00 61 1012.4
20260505082120 59 63 0.9 5.2 0.00 0.00 0.00 65 1012.4
20260505081615 56 26 4.3 4.3 0.00 0.00 0.00 73 1012.2
20260505081114 55 15 1.7 2.6 0.00 0.00 0.00 80 1012.2
20260505080609 55 112 0.9 1.7 0.00 0.00 0.00 82 1012.1
20260505080106 55 24 1.7 1.7 0.00 0.00 0.00 82 1011.8
20260505075602 55 176 0.0 1.7 0.00 0.00 0.00 83 1011.8
20260505075059 55 91 0.9 1.7 0.00 0.00 0.00 83 1011.6
20260505074556 55 131 0.0 1.7 0.00 0.00 0.00 83 1011.5
20260505074053 56 86 0.0 1.7 0.00 0.00 0.00 83 1011.5
20260505073550 56 80 1.7 2.6 0.00 0.00 0.00 82 1011.3
20260505073049 56 304 0.0 1.7 0.00 0.00 0.00 84 1011.4
20260505072549 56 43 0.9 1.7 0.00 0.00 0.00 84 1011.2
20260505072046 55 72 0.9 1.7 0.00 0.00 0.00 85 1011.3
20260505071541 56 70 0.0 1.7 0.00 0.00 0.00 85 1011.1
20260505071040 56 61 1.7 1.7 0.00 0.00 0.00 85 1010.8
20260505070537 56 75 1.7 1.7 0.00 0.00 0.00 84 1011.0
20260505070033 56 31 1.7 1.7 0.00 0.00 0.00 84 1010.8
20260505065529 56 66 0.0 1.7 0.00 0.00 0.00 85 1011.0
20260505065026 56 50 0.0 1.7 0.00 0.00 0.00 84 1010.8
20260505064522 56 50 0.0 0.9 0.00 0.00 0.00 84 1011.0
20260505064021 57 51 0.9 1.7 0.00 0.00 0.00 84 1011.2
20260505063518 57 137 0.9 1.7 0.00 0.00 0.00 84 1010.9
20260505063014 57 67 0.0 1.7 0.00 0.00 0.00 84 1010.9
20260505062511 57 40 1.7 1.7 0.00 0.00 0.00 84 1010.8
20260505062008 57 55 0.0 1.7 0.00 0.00 0.00 83 1010.8
20260505061506 57 68 0.9 1.7 0.00 0.00 0.00 83 1010.9
20260505061003 57 80 0.9 1.7 0.00 0.00 0.00 83 1010.7
20260505060500 57 75 1.7 1.7 0.00 0.00 0.00 83 1010.7
20260505055956 58 60 1.7 1.7 0.00 0.00 0.00 82 1010.5
20260505055452 58 47 0.9 1.7 0.00 0.00 0.00 82 1010.6
20260505054949 58 69 0.0 1.7 0.00 0.00 0.00 81 1010.5
20260505054447 58 58 0.9 2.6 0.00 0.00 0.00 81 1010.5
20260505053944 58 64 1.7 1.7 0.00 0.00 0.00 81 1010.5
20260505053441 59 103 0.0 1.7 0.00 0.00 0.00 80 1010.4
20260505052938 59 105 0.0 0.9 0.00 0.00 0.00 79 1010.4
20260505052435 59 43 0.0 1.7 0.00 0.00 0.00 79 1010.4
20260505051932 59 9 0.0 1.7 0.00 0.00 0.00 78 1010.4
20260505051429 59 55 0.9 1.7 0.00 0.00 0.00 78 1010.1
20260505050927 60 31 0.0 1.7 0.00 0.00 0.00 77 1010.0
20260505050425 60 79 0.9 1.7 0.00 0.00 0.00 76 1010.2
20260505041353 63 50 0.0 1.7 0.00 0.00 0.00 69 1009.7
20260505040850 63 40 0.9 1.7 0.00 0.00 0.00 67 1009.7
20260505040347 64 44 0.9 0.9 0.00 0.00 0.00 67 1009.7
20260505035844 64 28 0.0 1.7 0.00 0.00 0.00 66 1009.7
20260505035340 64 62 0.0 1.7 0.00 0.00 0.00 65 1009.5
20260505034837 65 60 0.0 1.7 0.00 0.00 0.00 66 1009.5
20260505034334 65 103 0.0 1.7 0.00 0.00 0.00 64 1009.4
20260505033831 66 38 0.0 1.7 0.00 0.00 0.00 63 1009.4
20260505033328 66 39 0.0 1.7 0.00 0.00 0.00 63 1009.5
20260505032826 67 25 0.0 1.7 0.00 0.00 0.00 61 1009.2
20260505032322 67 51 0.9 1.7 0.00 0.00 0.00 61 1009.3
20260505031820 68 0 0.0 1.7 0.00 0.00 0.00 59 1009.3
20260505031316 68 41 0.0 1.7 0.00 0.00 0.00 59 1009.3
20260505030813 69 17 0.0 1.7 0.00 0.00 0.00 57 1009.3
20260505030310 69 2 0.9 1.7 0.00 0.00 0.00 56 1009.4
20260505025804 69 11 0.9 1.7 0.00 0.00 0.00 55 1009.4
20260505025304 70 0 0.0 0.9 0.00 0.00 0.00 54 1009.4
20260505024801 70 344 0.9 1.7 0.00 0.00 0.00 53 1009.3
20260505024258 71 12 0.0 1.7 0.00 0.00 0.00 50 1009.5
20260505023755 72 359 0.0 1.7 0.00 0.00 0.00 50 1009.3
20260505023252 73 57 0.0 0.9 0.00 0.00 0.00 45 1009.3
20260505022749 74 343 0.0 3.5 0.00 0.00 0.00 40 1009.5
20260505022246 74 275 2.6 4.3 0.00 0.00 0.00 39 1009.5
20260505021743 74 62 0.9 1.7 0.00 0.00 0.00 42 1009.5
20260505021240 75 9 0.9 1.7 0.00 0.00 0.00 38 1009.7
20260505020735 74 326 0.0 1.7 0.00 0.00 0.00 37 1009.8
20260505020231 74 318 2.6 4.3 0.00 0.00 0.00 37 1009.7
20260505015728 74 9 1.7 2.6 0.00 0.00 0.00 37 1009.9
20260505015225 74 311 2.6 2.6 0.00 0.00 0.00 37 1009.8
20260505014722 74 336 1.7 1.7 0.00 0.00 0.00 36 1009.8
20260505014220 74 324 2.6 2.6 0.00 0.00 0.00 37 1010.0
20260505013716 74 111 0.0 5.2 0.00 0.00 0.00 37 1009.9
20260505013213 74 312 1.7 3.5 0.00 0.00 0.00 37 1010.1
20260505012712 74 303 2.6 5.2 0.00 0.00 0.00 37 1010.0
20260505012209 75 38 1.7 3.5 0.00 0.00 0.00 37 1010.0
20260505011704 75 319 1.7 2.6 0.00 0.00 0.00 37 1010.0
20260505011202 76 235 0.0 0.9 0.00 0.00 0.00 37 1009.9
20260505010657 76 272 0.0 2.6 0.00 0.00 0.00 38 1010.0
20260505010154 75 281 0.9 2.6 0.00 0.00 0.00 39 1009.9
20260505005650 76 245 1.7 2.6 0.00 0.00 0.00 37 1010.0
20260505005147 76 225 2.6 2.6 0.00 0.00 0.00 38 1010.0
20260505004644 77 50 0.0 2.6 0.00 0.00 0.00 37 1010.0
20260505004140 77 125 3.5 3.5 0.00 0.00 0.00 39 1009.9
20260505003638 76 125 2.6 7.8 0.00 0.00 0.00 38 1010.1
20260505003135 78 301 3.5 3.5 0.00 0.00 0.00 39 1010.0
20260505002631 79 286 0.9 1.7 0.00 0.00 0.00 38 1010.0
20260505002130 79 326 1.7 3.5 0.00 0.00 0.00 37 1010.0
20260505001626 80 129 1.7 3.5 0.00 0.00 0.00 37 1010.1
20260505001124 80 55 0.0 1.7 0.00 0.00 0.00 38 1010.3
20260505000621 80 325 0.9 2.6 0.00 0.00 0.00 37 1010.1
20260505000119 80 42 0.9 3.5 0.00 0.00 0.00 37 1010.2
20260504235615 79 120 1.7 5.2 0.00 0.00 0.00 39 1010.3
20260504235112 81 125 4.3 4.3 0.00 0.00 0.00 37 1010.1
20260504234609 81 10 1.7 3.5 0.00 0.00 0.00 37 1010.1
20260504234106 80 319 0.0 2.6 0.00 0.00 0.00 38 1010.3
20260504233601 79 350 1.7 2.6 0.00 0.00 0.00 38 1010.2
20260504233058 80 129 0.0 5.2 0.00 0.00 0.00 37 1010.1
20260504232555 82 321 1.7 3.5 0.00 0.00 0.00 37 1010.1
20260504232053 82 140 0.9 3.5 0.00 0.00 0.00 35 1010.3
20260504231549 81 19 0.0 3.5 0.00 0.00 0.00 36 1010.3
20260504231045 81 350 2.6 2.6 0.00 0.00 0.00 36 1010.3
20260504230541 82 29 1.7 4.3 0.00 0.00 0.00 34 1010.4
20260504230041 84 49 3.5 3.5 0.00 0.00 0.00 33 1010.4
20260504225537 82 147 1.7 1.7 0.00 0.00 0.00 37 1010.4
20260504225034 83 200 0.0 1.7 0.00 0.00 0.00 36 1010.6
20260504224531 85 237 2.6 2.6 0.00 0.00 0.00 34 1010.6
20260504224028 84 89 0.0 1.7 0.00 0.00 0.00 34 1010.7
20260504223525 82 348 0.0 1.7 0.00 0.00 0.00 36 1010.7
20260504223021 82 78 0.9 1.7 0.00 0.00 0.00 35 1010.5
20260504222518 81 234 2.6 3.5 0.00 0.00 0.00 37 1010.8
20260504222015 81 235 0.9 3.5 0.00 0.00 0.00 36 1010.5
20260504221512 81 304 0.9 1.7 0.00 0.00 0.00 36 1010.6
20260504221009 81 72 0.9 3.5 0.00 0.00 0.00 32 1010.8
20260504220505 81 219 1.7 2.6 0.00 0.00 0.00 34 1010.9
20260504220002 80 223 0.0 1.7 0.00 0.00 0.00 36 1010.9
20260504215459 80 214 0.0 1.7 0.00 0.00 0.00 36 1010.9
20260504214956 79 67 2.6 3.5 0.00 0.00 0.00 38 1010.9
20260504214452 78 286 0.9 3.5 0.00 0.00 0.00 39 1011.1
20260504213949 79 112 0.0 2.6 0.00 0.00 0.00 40 1010.9
20260504213445 78 88 0.0 1.7 0.00 0.00 0.00 42 1010.9
20260504212943 78 102 0.9 3.5 0.00 0.00 0.00 41 1010.8
20260504212438 78 100 0.9 3.5 0.00 0.00 0.00 40 1011.1
20260504211936 78 96 0.9 2.6 0.00 0.00 0.00 40 1011.1
20260504211432 77 95 0.0 2.6 0.00 0.00 0.00 42 1011.1
20260504210930 78 80 0.9 3.5 0.00 0.00 0.00 40 1011.2
20260504210426 78 61 1.7 2.6 0.00 0.00 0.00 39 1011.0
20260504205924 78 246 0.9 1.7 0.00 0.00 0.00 39 1011.3
20260504205421 76 95 2.6 3.5 0.00 0.00 0.00 42 1011.2
20260504204919 75 85 1.7 3.5 0.00 0.00 0.00 42 1011.3
20260504204417 75 244 2.6 3.5 0.00 0.00 0.00 42 1011.2
20260504203916 77 256 1.7 3.5 0.00 0.00 0.00 40 1011.2
20260504203413 77 262 0.0 1.7 0.00 0.00 0.00 39 1011.2
20260504202909 77 234 0.9 1.7 0.00 0.00 0.00 41 1011.2
20260504202406 76 80 1.7 2.6 0.00 0.00 0.00 43 1011.4
20260504201903 76 104 1.7 1.7 0.00 0.00 0.00 43 1011.3
20260504201400 75 54 1.7 4.3 0.00 0.00 0.00 42 1011.5
20260504200857 74 234 0.9 2.6 0.00 0.00 0.00 42 1011.6
20260504200354 74 214 0.0 2.6 0.00 0.00 0.00 44 1011.6
20260504195851 74 238 1.7 3.5 0.00 0.00 0.00 43 1011.4
20260504195346 73 54 1.7 3.5 0.00 0.00 0.00 46 1011.5
20260504194843 73 274 1.7 3.5 0.00 0.00 0.00 47 1011.4
20260504194339 74 68 3.5 3.5 0.00 0.00 0.00 44 1011.3
20260504193835 74 255 0.9 3.5 0.00 0.00 0.00 47 1011.5
20260504193332 72 261 0.9 2.6 0.00 0.00 0.00 48 1011.5
20260504192831 72 234 1.7 3.5 0.00 0.00 0.00 49 1011.5
20260504192329 71 67 1.7 2.6 0.00 0.00 0.00 49 1011.6
20260504191827 71 102 2.6 2.6 0.00 0.00 0.00 48 1011.3
20260504191324 71 53 2.6 3.5 0.00 0.00 0.00 49 1011.6
20260504190819 71 112 2.6 4.3 0.00 0.00 0.00 51 1011.6
20260504190316 72 113 1.7 4.3 0.00 0.00 0.00 52 1011.5
20260504185813 72 119 0.0 1.7 0.00 0.00 0.00 48 1011.6
20260504185310 71 106 2.6 3.5 0.00 0.00 0.00 52 1011.5
20260504184806 71 59 1.7 3.5 0.00 0.00 0.00 54 1011.6
20260504184301 70 76 0.0 2.6 0.00 0.00 0.00 54 1011.6
20260504183757 70 245 1.7 1.7 0.00 0.00 0.00 52 1011.7
20260504183254 69 79 0.9 3.5 0.00 0.00 0.00 53 1011.5
20260504182753 69 62 0.9 3.5 0.00 0.00 0.00 57 1011.5
20260504182249 69 54 1.7 2.6 0.00 0.00 0.00 55 1011.6
20260504181747 68 67 1.7 2.6 0.00 0.00 0.00 57 1011.8
20260504181244 68 68 2.6 3.5 0.00 0.00 0.00 58 1011.6
20260504180743 69 85 1.7 3.5 0.00 0.00 0.00 55 1011.5
20260504180241 69 62 0.0 2.6 0.00 0.00 0.00 57 1011.5
20260504175739 67 44 0.0 1.7 0.00 0.00 0.00 56 1011.6
20260504175235 67 188 0.9 1.7 0.00 0.00 0.00 57 1011.5
20260504174733 66 64 1.7 2.6 0.00 0.00 0.00 60 1011.4
20260504174231 66 95 1.7 2.6 0.00 0.00 0.00 62 1011.7
20260504173727 65 102 1.7 3.5 0.00 0.00 0.00 62 1011.7
20260504173224 66 114 2.6 3.5 0.00 0.00 0.00 61 1011.7
20260504172721 66 79 1.7 1.7 0.00 0.00 0.00 64 1011.8
20260504172217 65 133 2.6 2.6 0.00 0.00 0.00 63 1011.5
20260504171714 65 103 0.0 2.6 0.00 0.00 0.00 65 1011.6
20260504171211 64 184 0.9 1.7 0.00 0.00 0.00 64 1011.6
20260504170708 64 121 2.6 3.5 0.00 0.00 0.00 69 1011.6
20260504170205 63 67 0.0 1.7 0.00 0.00 0.00 69 1011.4
20260504160124 58 87 0.9 3.5 0.00 0.00 0.00 79 1011.6
20260504151051 54 160 0.0 1.7 0.00 0.00 0.00 81 1011.4
20260504150548 53 68 1.7 1.7 0.00 0.00 0.00 83 1011.4
20260504141014 53 33 1.7 2.6 0.00 0.00 0.00 82 1011.0
20260504140511 53 41 1.7 1.7 0.00 0.00 0.00 81 1011.1
20260504130435 53 40 1.7 1.7 0.00 0.00 0.00 81 1010.4
20260504110322 54 61 0.9 1.7 0.00 0.00 0.00 78 1010.4